Location: Büchen
(48.4388°N, 7.9849°E)
Time: 03:06:13
(UTC+00:00)

Daily predictions for brighter satellites

Satellite Brightness Start Highest point End
(mag) Time Altitude Azimuth Time Altitude Azimuth Time Altitude Azimuth
Cosmos 1553 Rocket 4.1 00:03:21 34° SSW 00:06:07 67° WNW 00:12:19 10° N
NOSS 2-2 (D) 4.2 00:01:18 10° NW 00:06:17 84° SW 00:11:37 17° SE
Cosmos 1461 3.4 00:02:37 10° NW 00:06:31 41° WSW 00:06:31 41° WSW
Gblst 52 Del rocket 4.4 00:01:05 10° W 00:07:16 74° NNW 00:12:51 10° ENE
Cosmos 1867 3.6 00:05:01 34° SW 00:07:30 84° NW 00:13:02 10° NE
Cosmos 1674 Rocket 3.5 00:06:55 50° SSW 00:07:59 78° W 00:12:20 10° N
Cosmos 2221 Rocket 3.9 00:06:47 41° SW 00:07:59 55° WNW 00:12:21 10° N
Cosmos 2298 Rocket 4.1 00:07:41 40° S 00:09:34 69° ESE 00:14:52 10° NNE
Cosmos 1674 3.3 00:10:51 38° WSW 00:11:27 42° WNW 00:15:03 10° N
USA 306 3.3 00:11:52 42° SE 00:11:53 42° SE 00:15:51 10° ENE
Cosmos 1238 Rocket 3.2 00:09:46 10° NNW 00:12:06 34° WNW 00:12:06 34° WNW
Thor Agena Rocket 4.3 00:08:15 10° NNE 00:13:18 44° E 00:15:34 28° SSE
ATLAS CENTAUR R/B 3.3 00:10:52 10° WNW 00:13:59 20° WSW 00:13:59 20° WSW
USA 307 3.4 00:15:21 39° SE 00:15:22 39° SE 00:19:17 10° ENE
SL-16 R/B 3.9 00:16:08 15° SE 00:18:50 21° E 00:22:58 10° NE
ERBS 3.7 00:22:52 25° E 00:22:52 25° E 00:24:41 10° ENE
Cosmos 1980 3.8 00:20:38 36° S 00:22:56 66° ESE 00:28:33 10° NNE
ATLAS 5 CENTAUR R/B 3.0 00:10:53 10° NW 00:22:57 55° WSW 00:24:40 36° S
CZ-4C R/B 3.3 00:16:28 10° NW 00:23:30 50° WSW 00:27:52 27° S
Cosmos 1378 Rocket 3.8 00:22:19 40° SW 00:23:36 57° WNW 00:28:00 10° N
Cosmos 1455 Rocket 3.9 00:19:27 10° N 00:23:47 46° ENE 00:26:09 24° SE
Cosmos 2333 Rocket 3.5 00:19:42 15° WSW 00:23:50 35° NW 00:29:02 10° NNE
USA 215 3.9 00:19:47 10° NE 00:26:09 56° NNW 00:32:31 10° W
Cosmos 332 Rocket 4.3 00:28:23 33° SSE 00:30:05 49° ESE 00:34:43 10° NNE
NOSS 0 Rocket 3.9 00:29:23 32° SSW 00:32:32 89° WNW 00:38:50 10° NNE
USA 32 4.0 00:35:15 35° S 00:37:33 87° W 00:42:51 10° N
Meteor 2-10 Rocket 3.6 00:32:31 10° NNW 00:38:15 88° ENE 00:41:17 28° SSE
Cosmos 1975 Rocket 3.4 00:39:39 32° SSE 00:41:27 58° E 00:45:51 10° NNE
Cosmos 1745 Rocket 4.4 00:35:52 10° NNW 00:41:47 47° W 00:44:35 29° SW
Cosmos 839 Rocket 4.3 00:37:34 10° NW 00:43:50 60° WSW 00:49:12 19° SSE
ADEOS Rocket 4.4 00:42:18 16° WSW 00:44:10 19° W 00:48:17 10° NW
USA 308 2.8 00:44:46 44° SSW 00:45:52 63° SE 00:50:01 10° ENE
Cosmos 2219 Rocket 3.6 00:42:56 13° WSW 00:47:11 30° NW 00:52:07 10° NNE
Cosmos 1025 Rocket 3.4 00:47:03 30° SSE 00:48:55 55° E 00:53:08 10° NNE
Cosmos 1455 3.8 00:46:33 10° N 00:49:52 30° ENE 00:52:38 13° SE
Cosmos 1269 Rocket 4.2 00:45:22 10° NNW 00:50:40 73° ENE 00:55:07 15° SSE
GP-B 3.2 00:51:59 10° N 00:56:23 65° W 00:58:07 35° SSW
Meteor 2-5 Rocket 3.9 00:55:38 25° S 00:59:02 69° E 01:04:41 10° NNE
CZ-2D R/B 2.5 00:53:58 10° NNE 00:59:17 57° E 01:02:28 24° S
Lacrosse 5 2.6 00:58:31 28° S 01:00:25 39° SE 01:05:09 10° ENE
Cosmos 1300 3.3 00:57:11 10° NNW 01:00:44 38° W 01:01:27 35° WSW
USA 267 4.2 01:02:14 24° SW 01:03:09 25° SW 01:08:21 10° WNW
SL-14 R/B 4.3 01:02:27 27° WSW 01:03:38 32° WNW 01:07:09 10° N
Cosmos 371 Rocket 4.0 01:06:03 24° WSW 01:08:36 43° WNW 01:13:15 10° NNE
USA 305 2.8 01:07:08 27° WSW 01:09:19 84° NNW 01:13:31 10° ENE
Cosmos 1544 Rocket 3.7 01:05:45 10° N 01:10:12 72° E 01:13:09 20° SSE
USA 229 DEB 4.5 01:03:57 10° NW 01:10:41 38° WSW 01:15:06 21° S
USA 229 4.4 01:04:03 10° NW 01:10:47 39° WSW 01:15:15 21° S
BREEZE-M DEB (TANK) 4.3 00:56:36 10° WSW 01:12:31 84° SSE 01:16:42 10° ENE
Cosmos 2237 Rocket 2.5 01:11:28 23° SW 01:14:55 59° WNW 01:20:35 10° NNE
COSMOS 2428 4.3 01:12:17 10° WSW 01:16:58 27° NW 01:21:48 10° NNE
AQUA 4.3 01:13:56 10° NNE 01:18:38 54° E 01:21:49 20° S
Cosmos 304 Rocket 4.2 01:17:17 25° SW 01:19:52 52° WNW 01:24:36 10° NNE
SL-16 R/B 2.5 01:14:42 13° SSE 01:20:19 87° WSW 01:26:37 10° NNW
Helios 1A 3.9 01:17:22 10° SE 01:21:24 47° ENE 01:25:29 10° N
SAR-Lupe-2 4.2 01:18:44 10° NNE 01:22:14 49° E 01:24:09 23° SSE
Lacrosse 5 rocket 2.3 01:21:54 25° S 01:23:15 32° SE 01:26:52 10° ENE
Cosmos 1953 4.3 01:23:28 10° NW 01:25:41 14° W 01:26:26 14° W
SME Rocket 3.8 01:24:35 28° SW 01:26:10 39° W 01:30:53 10° NNW
Cosmos 2074 Rocket 4.0 01:22:05 10° N 01:28:25 85° W 01:33:59 14° S
Resurs 1-4 Rocket 2.1 01:23:12 10° NNE 01:28:30 82° WNW 01:31:56 22° SSW
Cosmos 2297 3.7 01:27:29 10° NNW 01:33:17 85° WSW 01:39:01 10° SSE
Cosmos 1943 Rocket 2.2 01:27:37 10° NNW 01:33:17 69° WSW 01:38:54 10° SSE
Cosmos 1703 4.4 01:35:52 13° SSE 01:39:07 39° E 01:42:48 10° NNE
CRYOSAT 2 4.3 01:38:47 16° S 01:42:43 84° W 01:47:37 10° N
Cosmos 2184 Rocket 4.0 01:37:02 10° NNW 01:43:16 70° W 01:48:45 13° S
Cosmos 2278 Rocket 3.7 01:40:12 10° WNW 01:43:49 18° W 01:45:23 16° WSW
ADEOS II 2.2 01:39:10 10° NNE 01:44:27 77° ESE 01:48:40 16° S
IDEFIX/ARIANE 42P 2.9 01:40:05 10° NNE 01:45:21 66° ESE 01:49:52 14° S
Cosmos 1610 Rocket 4.5 01:40:54 10° N 01:47:06 86° E 01:53:14 10° S
USA 306 3.4 01:47:34 11° W 01:51:25 56° NNW 01:55:33 10° ENE
Cosmos 2084 Rocket 3.4 01:49:15 20° WSW 01:51:42 60° NW 01:55:28 10° NE
Cosmos 292 Rocket 4.2 01:48:10 16° S 01:51:54 59° ESE 01:56:38 10° NNE
USA 307 3.3 01:51:04 12° W 01:54:53 58° NNW 01:59:03 10° ENE
NPP 3.9 01:51:10 10° N 01:56:29 60° WNW 02:00:35 17° SW
ERBS 3.2 01:54:54 14° W 01:57:14 37° NNW 02:00:09 10° NE
Cosmos 2369 Rocket 2.3 01:52:57 10° NNW 01:58:36 79° ENE 02:04:11 10° SSE
USA-17 4.5 01:56:33 10° NW 01:59:51 76° SW 02:04:07 10° SE
Cosmos 614 Rocket 4.0 01:57:01 10° NNW 02:02:10 64° WSW 02:07:19 10° S
Cosmos 2228 3.1 01:57:47 10° N 02:02:11 80° E 02:06:31 10° SSE
IRS-1D 4.1 01:57:03 10° NNE 02:02:20 57° E 02:07:31 10° S
SL-16 R/B 2.3 01:58:00 17° SW 02:02:22 70° WNW 02:08:04 10° NNE
EO 1 Del DPAF 2.9 01:59:08 10° NNE 02:02:40 88° WNW 02:05:16 17° SSW
Cosmos 2251 Rocket 3.6 01:58:55 10° NNW 02:04:13 85° ENE 02:09:30 10° SSE
Meteor 1-28 Rocket 3.4 02:03:37 15° S 02:06:32 50° W 02:10:11 10° NNW
Cosmos 1656 Rocket 3.8 02:02:33 10° NNW 02:07:59 75° ENE 02:13:24 10° SSE
USA 215 4.5 02:02:28 10° ENE 02:08:32 42° N 02:14:36 10° WNW
COSMOS 2455 3.0 02:04:48 15° SSW 02:09:54 77° ESE 02:15:57 10° NE
Cosmos 1536 Rocket 3.7 02:08:02 16° SSW 02:11:29 59° WNW 02:15:51 10° N
COSMOS 2441 4.5 02:12:47 10° NNE 02:17:41 78° ESE 02:22:31 10° S
Nadezhda 1 Rocket 4.2 02:15:05 12° SSW 02:20:59 63° WNW 02:27:14 10° N
MSX 3.9 02:16:37 10° NNE 02:22:25 83° WNW 02:28:12 10° SSW
Cosmos 1455 3.6 02:22:20 10° NW 02:25:11 21° W 02:27:23 13° SW
USA 308 3.8 02:21:36 10° W 02:25:38 46° NNW 02:29:42 10° ENE
Cosmos 1603 4.4 02:20:34 10° S 02:25:57 49° ESE 02:31:24 10° NE
MOS 1 Rocket 4.1 02:23:22 13° SSW 02:26:25 27° W 02:30:06 10° NW
Cosmos 1271 Rocket 3.4 02:25:41 10° NNW 02:29:09 34° W 02:32:40 10° SSW
Cosmos 1606 Rocket 3.5 02:28:56 10° NNW 02:33:22 74° W 02:37:42 10° S
ALOS 3.6 02:32:20 10° NNE 02:36:42 39° E 02:41:04 10° SSE
CZ-2C R/B 3.7 02:34:00 10° NNE 02:38:52 41° E 02:43:36 10° SSE
CZ-2D R/B 3.5 02:34:38 10° N 02:38:58 25° WNW 02:43:14 10° WSW
Lacrosse 5 2.3 02:38:14 10° WSW 02:43:17 58° NNW 02:48:21 10° NE
Helios 1B rocket 2.7 02:39:32 10° NNE 02:43:37 70° ESE 02:47:39 10° S
Cosmos 2366 rocket 4.1 02:39:23 10° N 02:45:35 87° E 02:51:47 10° S
Cosmos 2341 Rocket 4.1 02:39:44 10° NNW 02:46:05 68° W 02:52:25 10° S
USA 305 4.1 02:45:19 10° WNW 02:49:16 39° N 02:53:13 10° ENE
Meteor 2-1 Rocket 4.4 02:45:00 10° NNW 02:50:40 60° W 02:56:13 10° S
BREEZE-M DEB (TANK) 3.3 02:47:42 10° SW 02:51:45 33° SSE 02:53:55 10° E
Cosmos 407 Rocket 3.5 02:46:49 10° NNW 02:52:08 69° WSW 02:57:21 10° S
SL-8 Rocket 4.1 02:46:32 10° NNW 02:52:51 72° W 02:59:07 10° S
Cosmos 1328 3.9 02:53:14 10° SSW 02:57:08 61° WNW 03:01:06 10° N
Cosmos 1943 3.3 02:51:38 10° SSW 02:57:21 89° WNW 03:03:05 10° NNE
Genesis I 3.3 02:55:51 10° NW 02:59:53 62° SW 03:03:49 10° SSE
Cosmos 2237 Rocket 4.4 02:56:55 10° WNW 03:00:17 16° NW 03:03:38 10° N
